| time (UTC) | temp F | wind direction | speed knots | gust knots | rain 1hr in | rain 24hr in | rain mn in | humidity % | barometer mb |
| 20260906214551 | 85 | 315 | 7.8 | 13.9 | 0.00 | 0.00 | 0.00 | 14 | 1024.3 |
| 20260906213055 | 83 | 310 | 7.8 | 14.8 | 0.00 | 0.00 | 0.00 | 16 | 1024.8 |
| 20260906211559 | 82 | 163 | 0.9 | 6.1 | 0.00 | 0.00 | 0.00 | 27 | 1025.0 |
| 20260906210058 | 81 | 162 | 3.5 | 9.6 | 0.00 | 0.00 | 0.00 | 31 | 1025.2 |
| 20260906204557 | 82 | 165 | 1.7 | 6.1 | 0.00 | 0.00 | 0.00 | 30 | 1025.4 |
| 20260906203053 | 83 | 159 | 2.6 | 9.6 | 0.00 | 0.00 | 0.00 | 29 | 1025.5 |
| 20260906201552 | 84 | 59 | 4.3 | 8.7 | 0.00 | 0.00 | 0.00 | 28 | 1025.7 |
| 20260906200055 | 80 | 165 | 1.7 | 6.1 | 0.00 | 0.00 | 0.00 | 30 | 1025.9 |
| 20260906194557 | 79 | 278 | 2.6 | 10.4 | 0.00 | 0.00 | 0.00 | 32 | 1025.9 |
| 20260906193055 | 81 | 130 | 1.7 | 11.3 | 0.00 | 0.00 | 0.00 | 28 | 1026.0 |
| 20260906191550 | 83 | 145 | 2.6 | 12.2 | 0.00 | 0.00 | 0.00 | 30 | 1026.4 |
| 20260906190057 | 83 | 184 | 3.5 | 10.4 | 0.00 | 0.00 | 0.00 | 29 | 1026.7 |
| 20260906184557 | 84 | 302 | 3.5 | 11.3 | 0.00 | 0.00 | 0.00 | 29 | 1026.8 |
| 20260906183054 | 80 | 213 | 1.7 | 6.1 | 0.00 | 0.00 | 0.00 | 30 | 1027.1 |
| 20260906181555 | 83 | 106 | 1.7 | 8.7 | 0.00 | 0.00 | 0.00 | 28 | 1027.2 |
| 20260906180056 | 82 | 314 | 2.6 | 9.6 | 0.00 | 0.00 | 0.00 | 28 | 1027.5 |
| 20260906174554 | 81 | 152 | 0.9 | 7.8 | 0.00 | 0.00 | 0.00 | 29 | 1027.6 |
| 20260906173102 | 81 | 187 | 2.6 | 7.8 | 0.00 | 0.00 | 0.00 | 29 | 1027.7 |
| 20260906171550 | 78 | 284 | 3.5 | 9.6 | 0.00 | 0.00 | 0.00 | 31 | 1027.9 |
| 20260906170056 | 80 | 86 | 2.6 | 9.6 | 0.00 | 0.00 | 0.00 | 30 | 1027.9 |
| 20260906164600 | 78 | 252 | 1.7 | 6.1 | 0.00 | 0.00 | 0.00 | 30 | 1028.0 |
| 20260906163052 | 76 | 253 | 0.9 | 7.8 | 0.00 | 0.00 | 0.00 | 32 | 1028.2 |
| 20260906161558 | 78 | 238 | 1.7 | 6.1 | 0.00 | 0.00 | 0.00 | 30 | 1028.0 |
| 20260906160057 | 79 | 329 | 2.6 | 7.8 | 0.00 | 0.00 | 0.00 | 29 | 1027.9 |
| 20260906154557 | 79 | 250 | 3.5 | 8.7 | 0.00 | 0.00 | 0.00 | 29 | 1027.7 |
| 20260906153046 | 76 | 169 | 5.2 | 9.6 | 0.00 | 0.00 | 0.00 | 31 | 1027.6 |
| 20260906151602 | 76 | 201 | 5.2 | 9.6 | 0.00 | 0.00 | 0.00 | 31 | 1027.6 |
| 20260906150056 | 76 | 148 | 4.3 | 8.7 | 0.00 | 0.00 | 0.00 | 31 | 1027.6 |
| 20260906144550 | 75 | 168 | 0.9 | 5.2 | 0.00 | 0.00 | 0.00 | 32 | 1027.4 |
| 20260906143113 | 73 | 142 | 1.7 | 7.0 | 0.00 | 0.00 | 0.00 | 35 | 1027.7 |
| 20260906141555 | 72 | 257 | 5.2 | 8.7 | 0.00 | 0.00 | 0.00 | 35 | 1027.5 |
| 20260906140051 | 71 | 298 | 5.2 | 7.0 | 0.00 | 0.00 | 0.00 | 36 | 1027.3 |
| 20260906134553 | 71 | 290 | 1.7 | 6.1 | 0.00 | 0.00 | 0.00 | 35 | 1027.2 |
| 20260906133104 | 70 | 304 | 1.7 | 7.0 | 0.00 | 0.00 | 0.00 | 36 | 1027.1 |
| 20260906131559 | 68 | 303 | 7.0 | 11.3 | 0.00 | 0.00 | 0.00 | 37 | 1027.0 |
| 20260906130052 | 67 | 243 | 5.2 | 11.3 | 0.00 | 0.00 | 0.00 | 39 | 1026.7 |
| 20260906124552 | 66 | 279 | 2.6 | 7.0 | 0.00 | 0.00 | 0.00 | 39 | 1026.7 |
| 20260906123056 | 64 | 268 | 1.7 | 3.5 | 0.00 | 0.00 | 0.00 | 41 | 1026.8 |
| 20260906121552 | 65 | 259 | 1.7 | 6.1 | 0.00 | 0.00 | 0.00 | 40 | 1026.8 |
| 20260906120049 | 66 | 0 | 0.0 | 10.4 | 0.00 | 0.00 | 0.00 | 39 | 1026.8 |
| 20260906114549 | 66 | 244 | 4.3 | 9.6 | 0.00 | 0.00 | 0.00 | 38 | 1026.7 |
| 20260906113054 | 66 | 290 | 4.3 | 8.7 | 0.00 | 0.00 | 0.00 | 38 | 1026.8 |
| 20260906111550 | 66 | 256 | 3.5 | 8.7 | 0.00 | 0.00 | 0.00 | 38 | 1026.7 |
| 20260906110047 | 67 | 274 | 3.5 | 7.8 | 0.00 | 0.00 | 0.00 | 37 | 1026.6 |
| 20260906104557 | 67 | 309 | 5.2 | 9.6 | 0.00 | 0.00 | 0.00 | 36 | 1026.6 |
| 20260906103055 | 68 | 240 | 7.0 | 12.2 | 0.00 | 0.00 | 0.00 | 35 | 1026.5 |
| 20260906101553 | 67 | 250 | 7.8 | 13.0 | 0.00 | 0.00 | 0.00 | 35 | 1026.5 |
| 20260906100046 | 68 | 252 | 7.8 | 13.9 | 0.00 | 0.00 | 0.00 | 34 | 1026.6 |
| 20260906094556 | 68 | 259 | 8.7 | 14.8 | 0.00 | 0.00 | 0.00 | 33 | 1026.4 |
| 20260906093113 | 68 | 273 | 8.7 | 15.6 | 0.00 | 0.00 | 0.00 | 34 | 1026.4 |
| 20260906091550 | 68 | 275 | 9.6 | 15.6 | 0.00 | 0.00 | 0.00 | 34 | 1026.4 |
| 20260906090048 | 68 | 277 | 9.6 | 15.6 | 0.00 | 0.00 | 0.00 | 35 | 1026.4 |
| 20260906084555 | 68 | 290 | 9.6 | 13.9 | 0.00 | 0.00 | 0.00 | 34 | 1026.3 |
| 20260906083053 | 68 | 248 | 6.1 | 11.3 | 0.00 | 0.00 | 0.00 | 34 | 1026.4 |
| 20260906081554 | 70 | 288 | 5.2 | 13.0 | 0.00 | 0.00 | 0.00 | 30 | 1026.4 |
| 20260906080100 | 72 | 223 | 9.6 | 15.6 | 0.00 | 0.00 | 0.00 | 27 | 1026.1 |
| 20260906074555 | 72 | 251 | 11.3 | 18.2 | 0.00 | 0.00 | 0.00 | 27 | 1026.2 |
| 20260906073057 | 73 | 213 | 7.0 | 13.9 | 0.00 | 0.00 | 0.00 | 26 | 1026.3 |
| 20260906071559 | 73 | 321 | 9.6 | 19.1 | 0.00 | 0.00 | 0.00 | 26 | 1026.1 |
| 20260906070046 | 72 | 210 | 8.7 | 18.2 | 0.00 | 0.00 | 0.00 | 30 | 1026.3 |
| 20260906064555 | 72 | 232 | 5.2 | 14.8 | 0.00 | 0.00 | 0.00 | 31 | 1026.4 |
| 20260906063056 | 71 | 279 | 1.7 | 9.6 | 0.00 | 0.00 | 0.00 | 33 | 1026.3 |
| 20260906061555 | 69 | 221 | 4.3 | 8.7 | 0.00 | 0.00 | 0.00 | 37 | 1026.6 |
| 20260906060053 | 66 | 202 | 5.2 | 7.8 | 0.00 | 0.00 | 0.00 | 44 | 1026.7 |
| 20260906054600 | 66 | 196 | 5.2 | 9.6 | 0.00 | 0.00 | 0.00 | 44 | 1026.7 |
| 20260906053056 | 65 | 240 | 1.7 | 6.1 | 0.00 | 0.00 | 0.00 | 46 | 1026.8 |
| 20260906051555 | 65 | 0 | 0.0 | 0.9 | 0.00 | 0.00 | 0.00 | 44 | 1026.9 |
| 20260906050131 | 66 | 337 | 0.9 | 2.6 | 0.00 | 0.00 | 0.00 | 44 | 1026.8 |
| 20260906044554 | 70 | 327 | 1.7 | 4.3 | 0.00 | 0.00 | 0.00 | 39 | 1026.7 |
| 20260906043106 | 69 | 195 | 1.7 | 2.6 | 0.00 | 0.00 | 0.00 | 40 | 1026.7 |
| 20260906041553 | 70 | 291 | 2.6 | 7.8 | 0.00 | 0.00 | 0.00 | 39 | 1026.6 |
| 20260906040101 | 70 | 291 | 3.5 | 7.8 | 0.00 | 0.00 | 0.00 | 38 | 1026.6 |
| 20260906034550 | 70 | 281 | 5.2 | 7.8 | 0.00 | 0.00 | 0.00 | 38 | 1026.8 |
| 20260906033056 | 69 | 244 | 2.6 | 4.3 | 0.00 | 0.00 | 0.00 | 41 | 1026.9 |
| 20260906031546 | 70 | 247 | 1.7 | 4.3 | 0.00 | 0.00 | 0.00 | 39 | 1026.8 |
| 20260906030114 | 70 | 234 | 2.6 | 5.2 | 0.00 | 0.00 | 0.00 | 40 | 1026.7 |
| 20260906024555 | 71 | 265 | 1.7 | 3.5 | 0.00 | 0.00 | 0.00 | 38 | 1026.4 |
| 20260906023047 | 71 | 250 | 2.6 | 4.3 | 0.00 | 0.00 | 0.00 | 38 | 1026.3 |
| 20260906021605 | 71 | 236 | 2.6 | 5.2 | 0.00 | 0.00 | 0.00 | 39 | 1026.4 |
| 20260906020100 | 70 | 281 | 3.5 | 7.0 | 0.00 | 0.00 | 0.00 | 39 | 1026.0 |
| 20260906014553 | 70 | 287 | 3.5 | 6.1 | 0.00 | 0.00 | 0.00 | 40 | 1025.9 |
| 20260906013057 | 71 | 327 | 0.0 | 1.7 | 0.00 | 0.00 | 0.00 | 39 | 1025.6 |
| 20260906011554 | 72 | 345 | 0.9 | 1.7 | 0.00 | 0.00 | 0.00 | 38 | 1025.7 |
| 20260906010056 | 75 | 284 | 0.0 | 2.6 | 0.00 | 0.00 | 0.00 | 35 | 1025.5 |
| 20260906004600 | 78 | 0 | 1.7 | 4.3 | 0.00 | 0.00 | 0.00 | 33 | 1025.5 |
| 20260906003107 | 81 | 277 | 0.9 | 5.2 | 0.00 | 0.00 | 0.00 | 30 | 1025.1 |
| 20260906001554 | 81 | 284 | 0.9 | 3.5 | 0.00 | 0.00 | 0.00 | 31 | 1025.0 |
| 20260906000056 | 82 | 207 | 0.0 | 6.1 | 0.00 | 0.00 | 0.00 | 28 | 1024.9 |
| 20260905234556 | 80 | 146 | 4.3 | 7.8 | 0.00 | 0.00 | 0.00 | 30 | 1025.0 |
| 20260905233056 | 81 | 155 | 2.6 | 5.2 | 0.00 | 0.00 | 0.00 | 29 | 1025.1 |
| 20260905231553 | 79 | 248 | 7.0 | 11.3 | 0.00 | 0.00 | 0.00 | 27 | 1025.0 |
| 20260905230058 | 78 | 218 | 7.0 | 14.8 | 0.00 | 0.00 | 0.00 | 31 | 1025.0 |
| 20260905224556 | 78 | 196 | 11.3 | 17.4 | 0.00 | 0.00 | 0.00 | 35 | 1025.2 |
| 20260905223054 | 78 | 216 | 11.3 | 18.2 | 0.00 | 0.00 | 0.00 | 35 | 1025.1 |
| 20260905221602 | 78 | 143 | 11.3 | 18.2 | 0.00 | 0.00 | 0.00 | 37 | 1025.1 |
| 20260905220056 | 78 | 151 | 7.0 | 14.8 | 0.00 | 0.00 | 0.00 | 35 | 1025.3 |